Regional Weather Roundup
Issued by NWS

Home | Current Version | Previous Version | Graphics & Text | Print | Product List | Glossary On
Versions: 1 2 3 4 5 6 7 8 9 10 11 12 13 14 15 16 17 18 19 20 21 22 23 24 25 26 27 28 29 30 31 32 33 34 35 36 37 38 39 40 41 42 43 44 45 46 47 48 49 50
000
ASUS45 KBOU 140910
RWRCO

WEATHER ROUNDUP FOR COLORADO
NATIONAL WEATHER SERVICE DENVER/BOULDER CO
300 AM MDT MON JUL 14 2014

NOTE: "FAIR" INDICATES FEW OR NO CLOUDS BELOW 12000 FEET WITH NO
SIGNIFICANT WEATHER AND/OR OBSTRUCTIONS TO VISIBILITY.

COZ001>005-013-030-031-141000-
...NORTHWEST COLORADO...

CITY           SKY/WX    TMP DP  RH WIND       PRES   REMARKS
CRAIG          PTCLDY    50  49  96 CALM      30.31S
HAYDEN         PTCLDY    61  46  59 E13       30.33S
MEEKER         PTCLDY    60  46  59 E5        30.32R
MOUNT WERNER   NOT AVBL
STEAMBOAT SPGS PTCLDY    56  48  74 CALM      30.36S
WALDEN         PTCLDY    45  41  87 E6        30.46S
$$

COZ006>008-011-141000-
...WEST CENTRAL VALLEYS...

CITY           SKY/WX    TMP DP  RH WIND       PRES   REMARKS
GRAND JUNCTION PTCLDY    73  45  36 CALM      30.14R
MONTROSE       PTCLDY    67  47  48 S7        30.24R
EAGLE          PTCLDY    59  48  67 E3        30.37S
RIFLE          PTCLDY    64  48  56 SE5       30.23S
DELTA          PTCLDY    71  44  37 NE6       30.19R
NUCLA          PTCLDY    75  45  33 S8        30.29S
$$

COZ017>023-064>068-141000-
...SOUTHWEST COLORADO...

CITY           SKY/WX    TMP DP  RH WIND       PRES   REMARKS
DURANGO        CLOUDY    61  55  81 E8        30.38R
CORTEZ         CLEAR     67  51  56 CALM      30.29S
PAGOSA SPRINGS CLOUDY    56  55  95 CALM      30.48R
TELLURIDE      MOCLDY    61  46  59 CALM      30.51R
WOLF CREEK PAS NOT AVBL
$$

COZ009-010-012-014-032>034-037-058>063-141000-
...CENTRAL COLORADO...

CITY           SKY/WX    TMP DP  RH WIND       PRES   REMARKS
ASPEN          PTCLDY    54  44  69 S7        30.42R
BUENA VISTA    MOCLDY    54  51  90 CALM      30.48R
COPPER MTN     PTCLDY    54  41  62 W8        30.75S
BERTHOUD PASS  FAIR      43  30  61 S3        30.79S
COTTONWOOD PAS PTCLDY    57  52  82 CALM      30.60S
GUNNISON       MOCLDY    57  46  67 N12       30.44S
KREMMLING      PTCLDY    54  46  76 CALM      30.43S
LEADVILLE      PTCLDY    47  46  97 NE8       30.58F
MONARCH PASS   FOG       46  45  93 NE8       30.83R VSB<1/4
SALIDA         PTCLDY   N/A N/A N/A W3        30.52R
SUNLIGHT       PTCLDY    55  43  62 NE3       30.66S
WILKERSON PASS MOCLDY    48  45  87 CALM      30.71S
$$

COZ069>075-141000-
...SAN LUIS VALLEY/SANGRE DE CRISTO MOUNTAINS...

CITY           SKY/WX    TMP DP  RH WIND       PRES   REMARKS
ALAMOSA        MOCLDY    58  52  80 CALM      30.42S
LA VETA PASS   TSTM      46  45  93 S8G24     30.63R VSB 1
SAGUACHE       NOT AVBL
$$

COZ035-036-038>040-141000-
...NORTHERN COLORADO FRONT RANGE...

CITY           SKY/WX    TMP DP  RH WIND       PRES   REMARKS
DENVER INTL AP PTCLDY    64  59  83 S5        30.27S
DMNS CITY PARK   N/A     65  58  77 S3G10     30.26F
AURORA         PTCLDY    63  60  90 S9        30.29F
FRONT RANGE AP NOT AVBL
ERIE MUNI ARPT CLEAR     59  57  93 CALM      30.25S
BOULDER MUN AP CLEAR     64  55  72 CALM      30.25S
CENTENNIAL     PTCLDY    64  58  80 S9        30.30F
BROOMFIELD     CLEAR     63  55  77 CALM      30.28S
FORT COLLINS   CLEAR     61  57  88 N9        30.27R
LONGMONT       CLEAR     62  57  83 CALM      30.26S
$$

COZ041-046-047-076>085-087-088-141000-
...PIKES PEAK/PALMER DIVIDE AND SOUTHERN FOOTHILLS...

CITY           SKY/WX    TMP DP  RH WIND       PRES   REMARKS
COLO. SPRINGS  MOCLDY    63  58  83 W3        30.36F
A. F. ACADEMY  MOCLDY    62  61  99 S2        30.38F
ELLICOTT       PTCLDY    61  59  93 CALM      30.34F
FALCON         PTCLDY    59  57  93 SW7       30.40F
FORT CARSON    MOCLDY    64  59  86 SW6       30.33F
LIMON          PTCLDY    57  56  96 N6        30.28F
MONUMENT HILL  CLEAR     57  55  94 S9        30.38F
TRINIDAD       CLOUDY    67  62  84 W9        30.31S
$$

COZ042>045-048>051-090-091-141000-
...NORTHEAST COLORADO...

CITY           SKY/WX    TMP DP  RH WIND       PRES   REMARKS
GREELEY ARPT   NOT AVBL
AKRON          PTCLDY    61  58  90 W14       30.22F
BURLINGTON     CLEAR     63  59  87 W8        30.18F
WRAY           CLEAR     62  62 100 W8        30.15S
STERLING       PTCLDY    64  64 100 S8        30.17F
HOLYOKE        CLEAR     63  61  94 W12       30.16R
FORT MORGAN    PTCLDY    60  57  90 N9        30.24S
$$

COZ086-089-092>099-141000-
...SOUTHEAST COLORADO...

CITY           SKY/WX    TMP DP  RH WIND       PRES   REMARKS
PUEBLO         MOCLDY    66  63  90 NW7       30.26F
LA JUNTA       CLOUDY    69  62  78 SE5       30.19F
LAMAR          MOCLDY    66  64  93 SE5       30.14F
SPRINGFIELD      N/A     63  61  93 SW5       30.19F
$$



USA.gov is the U.S. government's official web portal to all federal, state and local government web resources and services.